Location: Bucharest
(44.4268°N, 26.1025°E)
Time: 00:44:06
(UTC+03:00)

O/OREOS (USA 219) - Pass Details

Date: 08 July 2022
Orbit: 621 x 646 km, 72.0° (Epoch: 22 May)

Event Time Altitude Azimuth Distance (km) Brightness Sun altitude
Rises 01:23:16 0° 323° (NW) 2,966 ? -23.1°
Reaches altitude 10° 01:25:58 10° 308° (NW) 2,052 ? -23.1°
Enters shadow 01:29:17 22° 262° (W) 1,427 ? -23.0°
